User: anonymous   Login
Location: Unspecified
(0.0000°N, 0.0000°E)
Time: 18:29:21
(UTC+02:00)
Language:

Landsat 4 - Orbit

View from above orbital plane
View from above orbital plane
View from above satellite
View from above satellite

Ground track
Ground track

The orbit data is extracted from the following two-line orbital elements,

1 13367U 82072A   17172.57468378 +.00000546 +00000-0 +32613-4 0  9999
2 13367 098.2506 335.7442 0013251 179.9919 244.5402 15.15879964311008
Epoch (UTC): 21 June 2017 13:47:32
Eccentricity: 0.0013251
inclination: 98.2506°
perigee height: 509 km
apogee height: 527 km
right ascension of ascending node: 335.7442°
argument of perigee: 179.9919°
revolutions per day: 15.15879964
mean anomaly at epoch: 244.5402°
orbit number at epoch: 31100

The dashed part of the orbit path shows where the satellite is in the earth's shadow,  

DLR